TimeAKST,TemperatureF,Dew PointF,Humidity,Sea Level PressureIn,VisibilityMPH,Wind Direction,Wind SpeedMPH,Gust SpeedMPH,PrecipitationIn,Events,Conditions,WindDirDegrees,DateUTC
12:53 AM,33.1,28.9,85,29.62,3.0,SW,12.7,-,0.00,,Partly Cloudy,230,2013-01-11 09:53:00
1:53 AM,34.0,28.9,82,29.65,8.0,SSW,15.0,-,N/A,,Partly Cloudy,210,2013-01-11 10:53:00
2:53 AM,32.0,28.9,88,29.66,8.0,SW,11.5,-,N/A,,Clear,220,2013-01-11 11:53:00
3:53 AM,33.1,28.9,85,29.69,10.0,SSW,10.4,-,N/A,,Partly Cloudy,200,2013-01-11 12:53:00
4:53 AM,34.0,28.9,82,29.70,10.0,SSW,15.0,-,N/A,,Clear,210,2013-01-11 13:53:00
5:53 AM,32.0,28.9,88,29.71,6.0,SW,9.2,-,0.00,,Clear,220,2013-01-11 14:53:00
6:53 AM,32.0,28.9,88,29.71,10.0,South,9.2,-,N/A,,Clear,190,2013-01-11 15:53:00
7:53 AM,32.0,28.9,88,29.72,9.0,South,9.2,-,0.00,,Partly Cloudy,180,2013-01-11 16:53:00
8:31 AM,33.8,30.2,87,29.73,5.0,SSW,10.4,-,0.00,Snow,Light Snow,210,2013-01-11 17:31:00
8:44 AM,32.0,30.2,93,29.73,7.0,SSW,6.9,-,0.00,,Mostly Cloudy,210,2013-01-11 17:44:00
8:53 AM,30.0,28.9,96,29.73,7.0,SSW,4.6,-,0.00,,Mostly Cloudy,210,2013-01-11 17:53:00
9:01 AM,30.2,28.4,93,29.73,6.0,South,5.8,-,N/A,,Partly Cloudy,180,2013-01-11 18:01:00
9:53 AM,32.0,30.0,92,29.74,10.0,SSE,12.7,-,N/A,,Partly Cloudy,160,2013-01-11 18:53:00
10:53 AM,32.0,28.9,88,29.74,10.0,SSE,12.7,-,N/A,,Scattered Clouds,160,2013-01-11 19:53:00
11:53 AM,33.1,30.0,89,29.74,10.0,SSE,11.5,-,N/A,,Scattered Clouds,160,2013-01-11 20:53:00
12:05 PM,33.8,30.2,87,29.74,9.0,South,5.8,-,N/A,,Mostly Cloudy,190,2013-01-11 21:05:00
12:27 PM,30.2,28.4,93,29.73,7.0,SSE,5.8,-,N/A,,Mostly Cloudy,160,2013-01-11 21:27:00
12:53 PM,32.0,28.9,88,29.73,9.0,SE,6.9,-,N/A,,Mostly Cloudy,130,2013-01-11 21:53:00
1:53 PM,32.0,28.9,88,29.71,10.0,East,6.9,-,N/A,,Mostly Cloudy,90,2013-01-11 22:53:00
2:53 PM,33.1,30.9,92,29.66,9.0,East,6.9,-,0.00,,Overcast,80,2013-01-11 23:53:00
3:53 PM,32.0,30.0,92,29.65,5.0,ENE,8.1,-,N/A,,Overcast,70,2013-01-12 00:53:00
4:53 PM,34.0,30.9,89,29.60,10.0,ENE,17.3,-,N/A,,Overcast,70,2013-01-12 01:53:00
5:09 PM,33.8,30.2,87,29.59,3.0,East,20.7,28.8,0.00,Snow,Light Snow,100,2013-01-12 02:09:00
5:11 PM,33.8,30.2,87,29.59,2.5,East,21.9,-,0.00,Snow,Light Snow,100,2013-01-12 02:11:00
5:16 PM,33.8,30.2,87,29.59,0.8,East,23.0,-,0.00,Snow,Light Snow,90,2013-01-12 02:16:00
5:28 PM,32.0,30.2,93,29.58,1.0,East,13.8,-,0.00,Snow,Light Snow,90,2013-01-12 02:28:00
5:35 PM,32.0,30.2,93,29.57,0.8,East,13.8,23.0,0.01,Snow,Light Snow,80,2013-01-12 02:35:00
5:41 PM,32.0,30.2,93,29.57,3.0,East,13.8,-,0.01,Snow,Light Snow,80,2013-01-12 02:41:00
5:53 PM,32.0,30.9,96,29.57,9.0,ENE,11.5,-,0.01,,Overcast,70,2013-01-12 02:53:00
6:53 PM,33.1,30.0,89,29.51,10.0,ENE,19.6,25.3,0.00,,Overcast,70,2013-01-12 03:53:00
7:49 PM,33.8,30.2,87,29.46,3.0,ENE,23.0,31.1,0.00,Snow,Light Snow,60,2013-01-12 04:49:00
7:53 PM,33.1,30.9,92,29.45,2.5,ENE,21.9,31.1,0.00,Snow,Light Snow,60,2013-01-12 04:53:00
8:01 PM,33.8,30.2,87,29.44,2.5,ENE,25.3,33.4,0.00,Snow,Light Snow,70,2013-01-12 05:01:00
8:10 PM,33.8,30.2,87,29.43,1.5,East,27.6,35.7,0.00,Snow,Light Snow,80,2013-01-12 05:10:00
8:23 PM,32.0,30.2,93,29.42,1.8,East,26.5,34.5,0.00,Snow,Light Snow,80,2013-01-12 05:23:00
8:31 PM,32.0,30.2,93,29.42,1.8,ENE,24.2,32.2,N/A,Snow,Light Snow,70,2013-01-12 05:31:00
8:39 PM,32.0,30.2,93,29.41,2.5,ENE,24.2,32.2,0.00,Snow,Light Snow,70,2013-01-12 05:39:00
8:46 PM,32.0,30.2,93,29.41,2.0,ENE,26.5,31.1,0.00,Snow,Light Snow,70,2013-01-12 05:46:00
8:53 PM,32.0,30.0,92,29.41,1.8,ENE,24.2,-,0.00,Snow,Light Snow,70,2013-01-12 05:53:00
9:08 PM,32.0,30.2,93,29.39,1.5,ENE,26.5,33.4,0.01,Snow,Light Snow,70,2013-01-12 06:08:00
9:17 PM,32.0,30.2,93,29.39,2.0,ENE,23.0,-,0.01,Snow,Light Snow,70,2013-01-12 06:17:00
9:53 PM,32.0,30.0,92,29.36,1.8,ENE,23.0,28.8,0.01,Snow,Light Snow,60,2013-01-12 06:53:00
10:53 PM,30.9,30.0,96,29.27,1.8,NE,28.8,35.7,0.01,Snow,Light Snow,50,2013-01-12 07:53:00
11:53 PM,30.9,30.0,96,29.21,1.5,NE,29.9,39.1,0.01,Snow,Light Snow,50,2013-01-12 08:53:00